Notices

What's New in latest Release from April 7th, 2021:

- Updated Glossary, including Speed of Maximum Gust, and Total Hourly Precipitation

- Updated national and regional climate services offices contacts and prices information

- Addition of station inventory lists for 1981-2010, 1971-2000, and 1961-1990 Normals.

If you haven't already, please take our survey and provide feedback about our website: https://eccc.sondage-survey.ca/f/LanguageSelection.aspx?s=442ca660-fcf1-47c0-95a9-59707d6fd709

Hourly Data Report for December 15, 2004

SHERBROOKE A
QUEBEC

45°26'00.000" N
71°41'00.000" W
241.40 m
7028124
71610
YSC

Download Data

Hourly Data (December 2004)
Hourly Data Report for December 15, 2004
TIME
LST
Temp Definition
°C
Dew Point Definition
°C
Rel Hum Definition
%
Precip. Amount Definition
mm

Wind Dir Definition
10's deg

Wind Spd Definition
km/h
Visibility Definition
km
Stn Press Definition
kPa
Hmdx Definition


Wind Chill Definition


Weather Definition


00:00 -13.6 -16.2 81   27 6 15.0 99.32   -18  
01:00 -14.6 -17.1 81   27 7 15.0 99.38   -19  
02:00 -15.3 -17.9 80   26 7 15.0 99.45   -20  
03:00 -17.6 -20.1 81   25 6 15.0 99.52   -22  
04:00 -18.1 -20.2 84     0 15.0 99.54      
05:00 -20.2 -22.0 85   23 4 15.0 99.57   -24  
06:00 -19.3 -22.6 75   20 4 15.0 99.65   -23  
07:00 -20.2 -23.4 76   20 4 15.0 99.72   -24  
08:00 -18.6 -21.9 75   25 7 24.1 99.77   -24 Mainly Clear
09:00 -16.2 -18.2 85   26 4 24.1 99.82   -19 Mainly Clear
10:00 -15.8 -18.9 77   23 7 24.1 99.85   -21 Mainly Clear
11:00 -14.7 -18.9 70   22 9 24.1 99.80   -20 Mainly Clear
12:00 -13.9 -18.0 71   27 7 11.3 99.77   -19 Snow Showers
13:00 -12.6 -17.4 67   24 9 24.1 99.72   -18 Mainly Clear
14:00 -12.2 -17.1 67   27 9 24.1 99.73   -17 Mainly Clear
15:00 -12.3 -17.5 65   27 7 24.1 99.76   -17 Mainly Clear
16:00 -13.2 -15.7 81   24 4 24.1 99.80   -16 Snow Showers
17:00 -16.3 -17.6 90   23 4 24.1 99.82   -19 Clear
18:00 -17.6 -18.6 92   18 4 15.0 99.83   -21  
19:00 -18.5 -19.7 90   12 6 15.0 99.80   -23  
20:00 -17.3 -18.4 91   9 4 15.0 99.75   -20  
21:00 -16.7 -17.9 90   8 4 15.0 99.71   -20  
22:00 -15.5 -16.6 91   10 4 15.0 99.64   -18  
23:00 -14.3 -15.6 90   9 6 15.0 99.61   -18  

Notes on Data Quality.

Legend

  • E = Estimated
  • M = Missing
  • NA = Not Available*
  • [empty] = Indicates an unobserved value
Date modified: